[[{"header":{"parameterUnit":"m.s-1","parameterCategory":1,"la1":30.2991,"la2":30.254,"lo1":-89.0895,"lo2":-89.0444,"dy":0.0017,"dx":0.0017,"nx":28,"ny":28,"refTime":"2024-10-19T03:00:00:Z","depth":0,"parameterNumber":2,"parameterNumberName":"U-component_of_WINDS"},"data":[0,0,0,0,0,0,0,0,0,0,0,0,0,0,0,0,0,0,0,0,0,0,0,0,0,0,0,0,0,0,0,0,0,0,0,0,0,0,0,0,0,0,0,0,0,0,0,0,0,0,0,0,0,0,0,0,0,0,-5.3812,-5.3813,0,-5.3874,-5.3875,-5.3876,-5.3696,-5.3691,-5.3685,-5.368,-5.3745,-5.3752,-5.3758,0,0,0,0,0,0,0,0,0,0,0,0,0,-5.3539,-5.3545,-5.3812,-5.3813,-5.3814,-5.3874,-5.3875,-5.3876,-5.3697,-5.3691,-5.3684,-5.3678,-5.3743,-5.3751,-5.3759,0,0,0,0,0,0,0,0,0,0,0,0,0,-5.3635,-5.3547,-5.3812,-5.3732,-5.3725,-5.3874,-5.3875,-5.3876,-5.3699,-5.369,-5.3682,-5.3674,-5.374,-5.375,-5.376,-5.399,0,0,-5.3792,-5.3796,0,0,0,0,0,0,0,0,-5.363,-5.3645,-5.3743,-5.3738,-5.373,-5.3769,-5.3802,-5.3914,-5.3701,-5.3709,-5.368,-5.367,-5.376,-5.3768,-5.3798,-5.3993,-5.3995,-5.3793,-5.3799,-5.3803,-5.3806,0,0,0,0,0,0,0,-5.3623,-5.3642,-5.3836,-5.3744,-5.3737,-5.3693,-5.3697,-5.3823,-5.378,-5.3708,-5.3695,-5.3704,-5.3755,-5.3788,-5.3798,-5.3996,-5.3792,-5.3801,-5.3808,-5.3812,-5.4382,-5.439,0,0,0,0,0,0,-5.3627,-5.3637,-5.3834,-5.3838,-5.3659,-5.3704,-5.3709,-5.3765,-5.3778,-5.3772,-5.3711,-5.3696,-5.3775,-5.3786,-5.38,-5.4069,-5.3803,-5.3813,-5.3819,-5.4373,-5.4384,-5.4394,0,0,0,0,0,0,-5.3622,-5.3646,-5.3832,-5.3734,-5.3755,-5.3718,-5.3782,-5.3771,-5.3804,-5.3781,-5.3773,-5.3754,-5.3769,-5.3785,-5.3943,-5.4069,-5.3818,-5.3827,-5.4362,-5.4376,-5.4389,-5.461,0,0,0,0,0,0,-5.3615,-5.3646,-5.3732,-5.3738,-5.3761,-5.3976,-5.3789,-5.3778,-5.3822,-5.3802,-5.3818,-5.3813,-5.3763,-5.3929,-5.3954,-5.4078,-5.3835,-5.4351,-5.4369,-5.4384,-5.4591,-5.4629,-5.4662,0,0,0,0,0,-5.3606,-5.3793,-5.3738,-5.3763,-5.3868,-5.3983,-5.3996,-5.3935,-5.3833,-5.392,-5.3905,-5.3813,-5.4051,-5.3947,-5.3973,-5.4103,-5.4343,-5.4364,-5.4383,-5.4576,-5.4622,-5.4661,0,0,0,0,0,0,-5.3803,-5.3792,-5.3731,-5.3925,-5.3957,-5.3953,-5.4061,-5.3986,-5.4047,-5.4026,-5.3948,-5.3953,-5.4126,-5.413,-5.4014,-5.4325,-5.4179,-5.4206,-5.4317,-5.436,-5.4395,-5.4391,-5.3844,0,0,0,0,0,-5.387,-5.3964,-5.3948,-5.4121,-5.414,-5.4098,-5.4146,-5.4096,-5.4125,-5.4138,-5.4134,-5.4167,-5.4249,-5.4304,-5.4379,-5.4591,-5.4592,-5.4693,-5.4728,-5.4757,-5.4781,-5.4893,-5.4938,-5.446,-5.446,-5.4459,0,0,-5.4007,-5.4013,-5.4077,-5.4161,-5.4179,-5.4279,-5.4111,-5.4223,-5.4296,-5.4155,-5.4304,-5.4303,-5.4334,-5.4521,-5.4602,-5.4529,-5.4913,-5.4783,-5.4806,-5.4814,-5.4919,-5.4964,-5.5004,-5.4473,-5.4471,-5.4469,0,0,-5.4309,-5.4323,-5.4468,-5.449,-5.452,-5.449,-5.4526,-5.4533,-5.4527,-5.4676,-5.4572,-5.4657,-5.48,-5.4827,-5.4859,-5.517,-5.5088,-5.5197,-5.5381,-5.5492,-5.5529,-5.5562,-5.5674,-5.5715,-5.522,-5.5221,-5.5221,0,-5.4477,-5.4622,-5.4552,-5.4672,-5.4712,-5.4588,-5.4735,-5.4759,-5.4813,-5.4843,-5.476,-5.4936,-5.4948,-5.5139,-5.5215,-5.5245,-5.5283,-5.5195,-5.553,-5.5562,-5.5592,-5.5697,-5.574,-5.5234,-5.5233,-5.5231,-5.523,0,-5.4827,-5.493,-5.5043,-5.5097,-5.515,-5.5283,-5.5233,-5.5295,-5.524,-5.522,-5.5373,-5.5383,-5.5457,-5.5498,-5.5446,-5.5682,-5.5635,-5.5543,-5.5395,-5.5652,-5.575,-5.5789,-5.5253,-5.5248,-5.5244,-5.5241,0,0,-5.5256,-5.5269,-5.5312,-5.5335,-5.5359,-5.5437,-5.5564,-5.5636,-5.569,-5.5731,-5.5836,-5.5959,-5.5873,-5.591,-5.5859,-5.5956,-5.6203,-5.5851,-5.585,-5.5917,-5.6464,-5.6535,-5.6583,-5.6148,-5.6155,-5.6161,-5.6462,0,-5.5554,-5.5771,-5.5712,-5.5929,-5.6023,-5.5907,-5.6017,-5.6044,-5.6028,-5.6106,-5.6088,-5.6177,-5.6056,-5.6078,-5.6168,-5.6154,-5.6312,-5.6131,-5.6245,-5.625,-5.6242,-5.6634,-5.6709,-5.6992,-5.6499,-5.6506,-5.651,0,-5.5931,-5.5986,-5.6213,-5.6221,-5.6258,-5.6358,-5.6419,-5.6494,-5.6522,-5.6504,-5.6545,-5.6475,-5.66,-5.6451,-5.6622,-5.6501,-5.6544,-5.6544,-5.6553,-5.6562,-5.6397,-5.6654,-5.708,-5.7124,-5.657,-5.6565,-5.6561,0,-5.6222,-5.6352,-5.6505,-5.6528,-5.6541,-5.6614,-5.6623,-5.6643,-5.669,-5.6743,-5.6773,-5.684,-5.6878,-5.6932,-5.6882,-5.6778,-5.7062,-5.6908,-5.705,-5.7052,-5.7116,-5.7113,-5.7556,-5.7143,-5.7143,-5.7142,-5.7141,0,-5.6561,-5.6705,-5.6636,-5.673,-5.6887,-5.6817,-5.6975,-5.697,-5.6989,-5.708,-5.6983,-5.7071,-5.6999,-5.708,-5.7042,-5.719,-5.7207,-5.7197,-5.7185,-5.7206,-5.7208,-5.7233,-5.7213,-5.7153,-5.715,-5.7148,-5.7146,0,-5.6913,-5.6873,-5.7031,-5.703,-5.7033,-5.715,-5.7149,-5.7236,-5.7212,-5.7329,-5.7352,-5.7317,-5.7408,-5.7363,-5.7458,-5.7431,-5.7623,-5.7584,-5.7614,-5.7604,-5.7749,-5.7737,-5.8225,-5.8286,-5.7834,-5.7838,-5.7842,0,-5.7133,-5.724,-5.7251,-5.7305,-5.732,-5.7408,-5.7456,-5.7391,-5.7444,-5.7484,-5.7566,-5.7648,-5.7711,-5.7862,-5.7844,-5.7916,-5.7879,-5.8045,-5.7889,-5.7907,-5.7882,-5.7877,-5.7887,-5.8077,-5.8083,-5.8087,-5.809,0,-5.7527,-5.7501,-5.7573,-5.7639,-5.7698,-5.7747,-5.7787,-5.7837,-5.7773,-5.7838,-5.7929,-5.7978,-5.8074,-5.8157,-5.822,-5.8228,-5.815,-5.8139,-5.8176,-5.8199,-5.8212,-5.8208,-5.77,-5.8129,-5.8125,-5.8122,-5.812,-5.8118,-5.7819,-5.791,-5.7931,-5.8015,-5.8038,-5.8078,-5.8159,-5.8146,-5.8221,-5.8295,-5.8251,-5.8359,-5.8383,-5.8459,-5.8479,-5.8562,-5.8496,-5.8549,-5.8562,-5.8577,-5.8597,-5.8199,-5.8573,-5.8572,-5.857,-5.857,-5.8569,0,-5.8209,-5.8217,-5.8294,-5.8353,-5.8419,-5.8338,-5.8379,-5.8439,-5.8535,-5.8564,-5.8627,-5.8733,-5.8813,-5.8802,-5.8875,-5.8944,-5.891,-5.8965,-5.896,-5.8963,-5.8651,-5.8612,-5.8992,-5.8992,-5.8992,-5.8992,-5.8991,-5.8991,-5.8419,-5.8568,-5.8545,-5.8704,-5.871,-5.8815,-5.8845,-5.8881,-5.8904,-5.9026,-5.9092,-5.9084,-5.9097,-5.9171,-5.9241,-5.9235,-5.9267,-5.9336,-5.9318,-5.9027,-5.8985,-5.8945,-5.8908,-5.9344,-5.9344,-5.9623,-5.9625,-5.9627]},{"header":{"parameterUnit":"m.s-1","parameterCategory":1,"la1":30.2991,"la2":30.254,"lo1":-89.0895,"lo2":-89.0444,"dy":0.0017,"dx":0.0017,"nx":28,"ny":28,"refTime":"2024-10-19T03:00:00:Z","depth":0,"parameterNumber":3,"parameterNumberName":"V-component_of_WINDS"},"data":[0,0,0,0,0,0,0,0,0,0,0,0,0,0,0,0,0,0,0,0,0,0,0,0,0,0,0,0,0,0,0,0,0,0,0,0,0,0,0,0,0,0,0,0,0,0,0,0,0,0,0,0,0,0,0,0,0,0,-3.3247,-3.3247,0,-3.3263,-3.3263,-3.3263,-3.3229,-3.3228,-3.3227,-3.3226,-3.3241,-3.3243,-3.3244,0,0,0,0,0,0,0,0,0,0,0,0,0,-3.3186,-3.3188,-3.3247,-3.3247,-3.3248,-3.3263,-3.3263,-3.3263,-3.323,-3.3228,-3.3227,-3.3226,-3.3241,-3.3243,-3.3244,0,0,0,0,0,0,0,0,0,0,0,0,0,-3.3208,-3.3188,-3.3247,-3.3233,-3.3232,-3.3263,-3.3263,-3.3263,-3.323,-3.3228,-3.3227,-3.3225,-3.324,-3.3243,-3.3245,-3.329,0,0,-3.3251,-3.3252,0,0,0,0,0,0,0,0,-3.3207,-3.3211,-3.3235,-3.3234,-3.3233,-3.3242,-3.3247,-3.3272,-3.323,-3.3231,-3.3226,-3.3224,-3.3243,-3.3245,-3.3251,-3.3291,-3.3292,-3.3251,-3.3253,-3.3253,-3.3254,0,0,0,0,0,0,0,-3.3206,-3.321,-3.3253,-3.3235,-3.3234,-3.3225,-3.3226,-3.3252,-3.3246,-3.323,-3.3228,-3.323,-3.3242,-3.3249,-3.3251,-3.3292,-3.3251,-3.3253,-3.3254,-3.3255,-3.3367,-3.3368,0,0,0,0,0,0,-3.3206,-3.3209,-3.3253,-3.3254,-3.3216,-3.3227,-3.3229,-3.3241,-3.3245,-3.3244,-3.3232,-3.3229,-3.3247,-3.3249,-3.3252,-3.3303,-3.3253,-3.3255,-3.3257,-3.3365,-3.3367,-3.3369,0,0,0,0,0,0,-3.3205,-3.3211,-3.3252,-3.3231,-3.3235,-3.323,-3.3244,-3.3242,-3.3249,-3.3246,-3.3245,-3.324,-3.3245,-3.3249,-3.328,-3.3304,-3.3256,-3.3258,-3.3363,-3.3366,-3.3368,-3.3409,0,0,0,0,0,0,-3.3203,-3.321,-3.3228,-3.3231,-3.3237,-3.3281,-3.3245,-3.3244,-3.3253,-3.3249,-3.3254,-3.3253,-3.3244,-3.3277,-3.3282,-3.3306,-3.326,-3.3361,-3.3364,-3.3367,-3.3405,-3.3412,-3.3418,0,0,0,0,0,-3.3201,-3.324,-3.3229,-3.3235,-3.3259,-3.3283,-3.3286,-3.3275,-3.3255,-3.3272,-3.327,-3.3253,-3.3301,-3.3281,-3.3286,-3.3311,-3.3359,-3.3363,-3.3367,-3.3402,-3.3411,-3.3418,0,0,0,0,0,0,-3.324,-3.324,-3.3229,-3.3269,-3.3276,-3.3277,-3.3299,-3.3285,-3.3298,-3.3293,-3.3279,-3.3281,-3.3314,-3.3316,-3.3294,-3.3354,-3.3326,-3.3332,-3.3351,-3.3359,-3.3366,-3.3364,-3.3262,0,0,0,0,0,-3.3253,-3.3273,-3.3272,-3.3307,-3.3311,-3.3305,-3.3315,-3.3305,-3.3312,-3.3315,-3.3315,-3.3322,-3.3338,-3.3349,-3.3364,-3.3405,-3.3405,-3.3425,-3.3431,-3.3436,-3.3441,-3.346,-3.3468,-3.3381,-3.3381,-3.3381,0,0,-3.3281,-3.3283,-3.3296,-3.3315,-3.3319,-3.3339,-3.3307,-3.333,-3.3344,-3.3318,-3.3347,-3.3348,-3.3354,-3.339,-3.3406,-3.3393,-3.3464,-3.3441,-3.3446,-3.3447,-3.3465,-3.3473,-3.348,-3.3384,-3.3384,-3.3383,0,0,-3.334,-3.3345,-3.3374,-3.3379,-3.3385,-3.338,-3.3387,-3.339,-3.3389,-3.3418,-3.3398,-3.3414,-3.3443,-3.3448,-3.3454,-3.3513,-3.3497,-3.3519,-3.3552,-3.3571,-3.3578,-3.3584,-3.3603,-3.361,-3.3523,-3.3523,-3.3523,0,-3.3374,-3.3403,-3.3391,-3.3414,-3.3422,-3.3399,-3.3427,-3.3432,-3.3444,-3.3449,-3.3434,-3.3468,-3.3471,-3.3506,-3.352,-3.3527,-3.3533,-3.3517,-3.3578,-3.3584,-3.359,-3.3607,-3.3615,-3.3525,-3.3525,-3.3525,-3.3525,0,-3.3442,-3.3462,-3.3485,-3.3495,-3.3506,-3.3532,-3.3522,-3.3534,-3.3524,-3.352,-3.3549,-3.3551,-3.3565,-3.3573,-3.3564,-3.3607,-3.3598,-3.3581,-3.3553,-3.36,-3.3617,-3.3624,-3.3529,-3.3528,-3.3527,-3.3527,0,0,-3.3527,-3.3529,-3.3537,-3.354,-3.3545,-3.356,-3.3584,-3.3598,-3.3607,-3.3616,-3.3634,-3.3658,-3.3641,-3.3649,-3.3639,-3.3656,-3.37,-3.3637,-3.3637,-3.3647,-3.3745,-3.3757,-3.3765,-3.369,-3.3691,-3.3692,-3.3744,0,-3.3584,-3.3625,-3.3614,-3.3654,-3.3671,-3.3649,-3.3669,-3.3674,-3.3671,-3.3684,-3.3681,-3.3697,-3.3675,-3.3679,-3.3695,-3.3692,-3.3719,-3.3688,-3.3706,-3.3706,-3.3703,-3.3774,-3.3787,-3.3835,-3.375,-3.3752,-3.3752,0,-3.3657,-3.3666,-3.3708,-3.3708,-3.3715,-3.3733,-3.3743,-3.3757,-3.3761,-3.3757,-3.3764,-3.3751,-3.3773,-3.3746,-3.3775,-3.3754,-3.3761,-3.376,-3.3761,-3.3761,-3.3731,-3.3774,-3.3851,-3.3857,-3.3763,-3.3762,-3.3761,0,-3.3712,-3.3736,-3.3763,-3.3767,-3.3767,-3.3781,-3.3781,-3.3784,-3.3792,-3.38,-3.3805,-3.3817,-3.3822,-3.3831,-3.3821,-3.3803,-3.3851,-3.3824,-3.3847,-3.3847,-3.3857,-3.3857,-3.3934,-3.3865,-3.3865,-3.3864,-3.3864,0,-3.3776,-3.3802,-3.3787,-3.3804,-3.3831,-3.3818,-3.3845,-3.3844,-3.3846,-3.3861,-3.3843,-3.3858,-3.3844,-3.3857,-3.3849,-3.3873,-3.3877,-3.3873,-3.387,-3.3874,-3.3874,-3.3877,-3.3873,-3.3866,-3.3866,-3.3866,-3.3865,0,-3.3842,-3.3833,-3.3861,-3.3859,-3.3859,-3.3879,-3.3877,-3.3891,-3.3886,-3.3906,-3.3909,-3.3901,-3.3915,-3.3906,-3.3921,-3.3915,-3.3946,-3.394,-3.3945,-3.3942,-3.3966,-3.3963,-3.4047,-3.4056,-3.3982,-3.3983,-3.3984,0,-3.3882,-3.3901,-3.39,-3.3909,-3.3911,-3.3925,-3.3932,-3.3919,-3.3928,-3.3933,-3.3946,-3.3959,-3.3968,-3.3992,-3.3987,-3.3997,-3.399,-3.4018,-3.3991,-3.3993,-3.3988,-3.3986,-3.3987,-3.4024,-3.4024,-3.4025,-3.4026,0,-3.3955,-3.3949,-3.396,-3.3969,-3.3978,-3.3985,-3.399,-3.3998,-3.3985,-3.3995,-3.4009,-3.4016,-3.403,-3.4042,-3.405,-3.4051,-3.4035,-3.4034,-3.404,-3.4043,-3.4044,-3.4041,-3.3958,-3.4032,-3.4032,-3.4031,-3.4031,-3.4031,-3.4008,-3.4022,-3.4023,-3.4036,-3.4038,-3.4043,-3.4056,-3.4052,-3.4063,-3.4073,-3.4064,-3.408,-3.4082,-3.4092,-3.4094,-3.4106,-3.4094,-3.4103,-3.4104,-3.4106,-3.4108,-3.4043,-3.4107,-3.4107,-3.4107,-3.4107,-3.4107,0,-3.4077,-3.4076,-3.4088,-3.4095,-3.4104,-3.4089,-3.4093,-3.4102,-3.4116,-3.4119,-3.4128,-3.4142,-3.4154,-3.4149,-3.4159,-3.4169,-3.4162,-3.4172,-3.417,-3.417,-3.412,-3.4113,-3.4177,-3.4177,-3.4177,-3.4177,-3.4177,-3.4177,-3.4114,-3.4137,-3.4131,-3.4155,-3.4154,-3.4169,-3.4172,-3.4176,-3.4178,-3.4195,-3.4204,-3.4201,-3.42,-3.4209,-3.4218,-3.4217,-3.422,-3.4232,-3.4228,-3.4181,-3.4174,-3.4167,-3.416,-3.4234,-3.4234,-3.4277,-3.4277,-3.4277]}]]